KJ6MC Weather Reports


time (UTC)temp
C
wind
direction
speed
KPH
gust
KPH
rain 1hr
cm
rain 24hr
cm
rain mn
cm
humidity
%
barometer
mb
20260504222650 16 93 3.2 9.7 0.00 0.03 0.03 76 1014.5
20260504222549 16 129 3.2 9.7 0.00 0.03 0.03 76 1014.6
20260504222450 16 120 3.2 9.7 0.00 0.03 0.03 75 1014.5
20260504222351 16 89 3.2 9.7 0.00 0.03 0.03 75 1014.5
20260504222245 16 110 3.2 6.4 0.00 0.03 0.03 75 1014.5
20260504222143 16 97 3.2 6.4 0.00 0.03 0.03 74 1014.5
20260504222043 16 96 3.2 6.4 0.00 0.03 0.03 74 1014.5
20260504221944 16 129 1.6 4.8 0.00 0.03 0.03 73 1014.6
20260504221847 16 96 1.6 4.8 0.00 0.03 0.03 73 1014.5
20260504221739 16 60 1.6 8.0 0.00 0.03 0.03 74 1014.5
20260504221640 16 60 1.6 8.0 0.00 0.03 0.03 74 1014.5
20260504221540 16 60 3.2 8.0 0.00 0.03 0.03 73 1014.5
20260504221440 16 58 1.6 8.0 0.00 0.03 0.03 73 1014.5
20260504221340 16 56 1.6 8.0 0.00 0.03 0.03 73 1014.6
20260504221234 16 110 1.6 8.0 0.00 0.03 0.03 73 1014.5
20260504221132 16 104 1.6 8.0 0.00 0.03 0.03 73 1014.5
20260504221032 16 95 1.6 8.0 0.00 0.03 0.03 73 1014.5
20260504220932 16 77 1.6 8.0 0.00 0.03 0.03 72 1014.5
20260504220846 16 103 0.0 8.0 0.00 0.03 0.03 73 1014.4
20260504220731 16 101 0.0 4.8 0.00 0.03 0.03 73 1014.4
20260504220629 16 106 0.0 1.6 0.00 0.03 0.03 74 1014.4
20260504220530 16 27 0.0 1.6 0.00 0.03 0.03 74 1014.4
20260504220429 16 328 0.0 1.6 0.00 0.03 0.03 74 1014.5
20260504220334 16 329 0.0 1.6 0.00 0.03 0.03 72 1014.5
20260504220323 16 328 0.0 1.6 0.00 0.03 0.03 72 1014.5
20260504220231 16 329 0.0 1.6 0.00 0.03 0.03 71 1014.5
20260504220128 16 328 0.0 4.8 0.00 0.03 0.03 69 1014.5
20260504220028 16 328 0.0 4.8 0.00 0.03 0.03 69 1014.5
20260504215925 16 328 0.0 4.8 0.00 0.03 0.03 68 1014.5
20260504215818 16 329 0.0 4.8 0.00 0.03 0.03 69 1014.5
20260504215724 16 329 0.0 4.8 0.00 0.03 0.03 69 1014.6
20260504215622 16 301 0.0 4.8 0.00 0.03 0.03 70 1014.6
20260504215521 16 301 0.0 4.8 0.00 0.03 0.03 70 1014.6
20260504215419 16 301 0.0 4.8 0.00 0.03 0.03 69 1014.6
20260504215322 16 301 0.0 6.4 0.00 0.03 0.03 68 1014.7
20260504215220 16 300 0.0 6.4 0.00 0.03 0.03 69 1014.7
20260504215120 16 300 1.6 6.4 0.00 0.03 0.03 69 1014.7
20260504215019 16 300 1.6 6.4 0.00 0.03 0.03 69 1014.7
20260504214917 16 300 1.6 6.4 0.00 0.03 0.03 69 1014.7
20260504214820 16 299 1.6 6.4 0.00 0.03 0.03 69 1014.7
20260504214719 16 299 1.6 6.4 0.00 0.03 0.03 68 1014.7
20260504214617 16 300 1.6 6.4 0.00 0.03 0.03 68 1014.7
20260504214518 16 299 1.6 6.4 0.00 0.03 0.03 68 1014.7
20260504214418 16 309 1.6 6.4 0.00 0.03 0.03 68 1014.7
20260504214319 16 323 0.0 3.2 0.00 0.03 0.03 67 1014.7
20260504214214 16 323 0.0 3.2 0.00 0.03 0.03 67 1014.7
20260504214112 16 332 0.0 3.2 0.00 0.03 0.03 68 1014.7
20260504214016 17 207 0.0 3.2 0.00 0.03 0.03 68 1014.7
20260504214012 17 329 0.0 3.2 0.00 0.03 0.03 68 1014.7
20260504213918 17 121 0.0 1.6 0.00 0.03 0.03 68 1014.7
20260504213903 17 207 0.0 1.6 0.00 0.03 0.03 68 1014.7
20260504213712 17 207 0.0 3.2 0.00 0.03 0.03 67 1014.7
20260504213635 17 207 0.0 3.2 0.00 0.03 0.03 68 1014.7
20260504213509 17 207 0.0 3.2 0.00 0.03 0.03 68 1014.7
20260504213421 17 207 0.0 3.2 0.00 0.03 0.03 68 1014.7
20260504213411 17 207 0.0 3.2 0.00 0.03 0.03 68 1014.7
20260504213204 17 207 0.0 3.2 0.00 0.03 0.03 68 1014.7
20260504213103 17 207 0.0 3.2 0.00 0.03 0.03 68 1014.7
20260504213006 17 207 0.0 3.2 0.00 0.03 0.03 68 1014.7
20260504212902 17 207 0.0 3.2 0.00 0.03 0.03 67 1014.7
20260504212801 17 207 0.0 3.2 0.00 0.03 0.03 67 1014.7
20260504212700 17 203 0.0 3.2 0.00 0.03 0.03 68 1014.8
20260504212558 17 203 0.0 3.2 0.00 0.03 0.03 67 1014.7
20260504212457 17 203 0.0 3.2 0.00 0.03 0.03 67 1014.8
20260504212355 17 203 0.0 3.2 0.00 0.03 0.03 67 1014.8
20260504212256 17 203 1.6 3.2 0.00 0.03 0.03 68 1014.8
20260504212154 17 203 1.6 4.8 0.00 0.03 0.03 67 1014.8
20260504212052 17 203 1.6 4.8 0.00 0.03 0.03 65 1014.8
20260504211951 17 214 1.6 4.8 0.00 0.03 0.03 66 1014.8
20260504211849 17 214 1.6 4.8 0.00 0.03 0.03 66 1014.8
20260504211749 17 190 3.2 4.8 0.00 0.03 0.03 66 1014.7
20260504211644 17 190 3.2 4.8 0.00 0.03 0.03 66 1014.8
20260504211442 17 190 3.2 6.4 0.00 0.03 0.03 66 1014.8
20260504211342 17 131 3.2 6.4 0.00 0.03 0.03 65 1014.8
20260504211247 17 158 3.2 6.4 0.00 0.03 0.03 66 1014.7
20260504211135 17 160 3.2 6.4 0.00 0.03 0.03 66 1014.7
20260504211036 17 156 3.2 6.4 0.00 0.03 0.03 66 1014.7
20260504210936 17 150 3.2 6.4 0.00 0.03 0.03 66 1014.7
20260504210836 17 226 3.2 6.4 0.00 0.03 0.03 66 1014.7
20260504210737 17 225 3.2 6.4 0.00 0.03 0.03 66 1014.7
20260504210631 17 165 3.2 6.4 0.00 0.03 0.03 66 1014.7
20260504210531 17 242 1.6 6.4 0.00 0.03 0.03 66 1014.7
20260504210432 17 194 1.6 6.4 0.00 0.03 0.03 65 1014.7
20260504210332 17 248 1.6 6.4 0.00 0.03 0.03 66 1014.7
20260504210236 17 214 1.6 4.8 0.00 0.03 0.03 67 1014.7
20260504210125 17 229 1.6 4.8 0.00 0.03 0.03 65 1014.7
20260504210024 17 221 0.0 4.8 0.00 0.03 0.03 66 1014.7
20260504205923 17 232 0.0 4.8 0.00 0.03 0.03 65 1014.7
20260504205824 17 208 0.0 4.8 0.00 0.03 0.03 66 1014.7
20260504205725 17 200 0.0 3.2 0.00 0.03 0.03 66 1014.7
20260504205623 17 235 0.0 3.2 0.00 0.03 0.03 67 1014.7
20260504205521 17 235 0.0 3.2 0.00 0.03 0.03 67 1014.6
20260504205437 17 235 1.6 4.8 0.00 0.03 0.03 68 1014.7
20260504205422 17 235 0.0 3.2 0.00 0.03 0.03 66 1014.7
20260504205337 17 235 0.0 4.8 0.00 0.03 0.03 68 1014.7
20260504205324 17 235 1.6 4.8 0.00 0.03 0.03 68 1014.7
20260504205158 17 233 1.6 4.8 0.00 0.03 0.03 69 1014.6
20260504205118 17 235 1.6 4.8 0.00 0.03 0.03 68 1014.7
20260504205050 17 235 1.6 4.8 0.00 0.03 0.03 67 1014.7
20260504204916 17 235 1.6 4.8 0.00 0.03 0.03 70 1014.7
20260504204830 17 233 1.6 4.8 0.00 0.03 0.03 69 1014.7
20260504204820 17 233 1.6 4.8 0.00 0.03 0.03 69 1014.6
20260504204608 17 240 1.6 6.4 0.00 0.03 0.03 71 1014.6
20260504204507 17 239 1.6 6.4 0.00 0.03 0.03 71 1014.6
20260504204429 16 208 1.6 6.4 0.00 0.03 0.03 73 1014.6
20260504204408 16 239 1.6 6.4 0.00 0.03 0.03 71 1014.6
20260504204325 16 224 1.6 6.4 0.00 0.03 0.03 72 1014.6
20260504204311 16 208 1.6 6.4 0.00 0.03 0.03 73 1014.6
20260504204101 16 248 1.6 6.4 0.00 0.03 0.03 72 1014.7
20260504204002 16 248 1.6 6.4 0.00 0.03 0.03 73 1014.6
20260504203928 16 238 1.6 6.4 0.00 0.03 0.03 72 1014.7
20260504203902 16 248 1.6 6.4 0.00 0.03 0.03 73 1014.7
20260504203815 16 248 1.6 6.4 0.00 0.03 0.03 71 1014.7
20260504203805 16 238 1.6 6.4 0.00 0.03 0.03 72 1014.7
20260504203556 16 233 1.6 6.4 0.00 0.03 0.03 73 1014.7
20260504203454 16 243 1.6 6.4 0.00 0.03 0.03 73 1014.7
20260504203353 16 248 1.6 6.4 0.00 0.03 0.03 72 1014.8
20260504203254 16 207 1.6 4.8 0.00 0.03 0.03 71 1014.8
20260504203154 16 236 1.6 4.8 0.00 0.03 0.03 71 1014.7
20260504203048 16 236 1.6 4.8 0.00 0.03 0.03 72 1014.7
20260504202948 16 218 1.6 4.8 0.00 0.03 0.03 75 1014.7
20260504202847 16 228 1.6 4.8 0.00 0.03 0.03 75 1014.7
20260504202748 16 228 1.6 4.8 0.00 0.03 0.03 74 1014.7
20260504202649 16 229 3.2 4.8 0.00 0.03 0.03 75 1014.7
20260504202542 16 250 3.2 4.8 0.00 0.03 0.03 75 1014.7
20260504202441 16 141 3.2 4.8 0.00 0.03 0.03 75 1014.7
20260504202342 16 141 3.2 4.8 0.00 0.03 0.03 75 1014.8
20260504202242 16 217 3.2 4.8 0.00 0.03 0.03 77 1014.7
20260504202143 16 158 1.6 4.8 0.00 0.03 0.03 77 1014.7
20260504202035 16 165 1.6 4.8 0.00 0.03 0.03 77 1014.7
20260504201936 16 127 3.2 4.8 0.00 0.03 0.03 76 1014.7
20260504201836 16 141 1.6 6.4 0.00 0.03 0.03 77 1014.7
20260504201736 16 135 1.6 6.4 0.00 0.03 0.03 78 1014.6
20260504201638 16 136 1.6 6.4 0.00 0.03 0.03 78 1014.7
20260504201533 16 146 1.6 6.4 0.00 0.03 0.03 78 1014.6
20260504201434 15 127 1.6 6.4 0.00 0.03 0.03 77 1014.7
20260504201333 15 207 1.6 6.4 0.00 0.03 0.03 77 1014.7
20260504201232 15 259 3.2 6.4 0.00 0.03 0.03 77 1014.8
20260504201131 15 130 3.2 8.0 0.00 0.03 0.03 77 1014.8
20260504201027 15 133 3.2 9.7 0.00 0.03 0.03 77 1014.8
20260504200928 15 214 3.2 9.7 0.00 0.03 0.03 77 1014.8
20260504200826 15 205 3.2 9.7 0.00 0.03 0.03 78 1014.8
20260504200726 15 204 3.2 9.7 0.00 0.03 0.03 77 1014.9
20260504200626 15 242 3.2 9.7 0.00 0.03 0.03 77 1014.8
20260504200518 15 248 4.8 9.7 0.00 0.03 0.03 78 1014.9
20260504200317 15 203 4.8 11.3 0.00 0.03 0.03 78 1014.9
20260504200218 15 217 4.8 11.3 0.00 0.03 0.03 78 1014.8
20260504200135 15 208 4.8 11.3 0.00 0.03 0.03 78 1014.9
20260504200015 15 221 3.2 11.3 0.00 0.03 0.03 80 1014.9
20260504195916 15 197 3.2 11.3 0.00 0.03 0.03 81 1014.9
20260504195816 15 239 3.2 11.3 0.00 0.03 0.03 80 1014.9
20260504195714 15 190 3.2 11.3 0.00 0.03 0.03 80 1014.9
20260504195612 15 219 3.2 11.3 0.00 0.03 0.03 80 1014.9
20260504195506 15 145 3.2 11.3 0.00 0.03 0.03 80 1014.9
20260504195406 15 145 3.2 11.3 0.00 0.03 0.03 80 1014.9
20260504195333 15 113 3.2 8.0 0.00 0.03 0.03 81 1014.9
20260504195305 15 137 3.2 8.0 0.00 0.03 0.03 81 1014.9
20260504195225 15 133 3.2 8.0 0.00 0.03 0.03 81 1014.9
20260504195214 15 113 3.2 8.0 0.00 0.03 0.03 81 1014.9
20260504195005 15 126 3.2 8.0 0.00 0.03 0.03 81 1014.9
20260504194904 15 259 3.2 8.0 0.00 0.03 0.03 80 1014.9
20260504194801 15 224 3.2 8.0 0.00 0.03 0.03 81 1014.9
20260504194702 15 136 3.2 8.0 0.00 0.03 0.03 81 1014.9
20260504194601 15 148 3.2 8.0 0.00 0.03 0.03 80 1014.9
20260504194549 15 141 3.2 9.7 0.00 0.03 0.03 83 1014.9
20260504194453 15 177 3.2 8.0 0.00 0.03 0.03 82 1015.0
20260504194431 15 144 3.2 8.0 0.00 0.03 0.03 82 1014.9
20260504194253 15 109 3.2 9.7 0.00 0.03 0.03 82 1014.9
20260504194209 15 139 3.2 9.7 0.00 0.03 0.03 82 1014.9
20260504194159 15 141 3.2 9.7 0.00 0.03 0.03 83 1014.9
20260504193948 15 119 3.2 9.7 0.00 0.03 0.03 83 1014.9
20260504193848 15 122 3.2 9.7 0.00 0.03 0.03 82 1014.9
20260504193747 15 203 3.2 9.7 0.00 0.03 0.03 82 1015.0
20260504193648 15 139 3.2 9.7 0.00 0.03 0.03 81 1015.0
20260504193549 15 151 3.2 9.7 0.00 0.03 0.03 81 1015.0
20260504193444 15 138 3.2 9.7 0.00 0.03 0.03 80 1014.9
20260504193343 15 129 3.2 9.7 0.00 0.03 0.03 80 1014.9
20260504193243 15 150 1.6 6.4 0.00 0.03 0.03 81 1014.9
20260504193143 15 219 1.6 6.4 0.00 0.03 0.03 82 1015.0
20260504193044 15 149 1.6 6.4 0.00 0.03 0.03 82 1015.0
20260504192939 15 141 3.2 8.0 0.00 0.03 0.03 82 1015.0
20260504192835 15 141 3.2 9.7 0.00 0.03 0.03 81 1015.0
20260504192736 15 134 3.2 9.7 0.00 0.03 0.03 81 1015.0
20260504192635 15 113 3.2 9.7 0.00 0.03 0.03 81 1015.0
20260504192538 15 117 3.2 9.7 0.00 0.03 0.03 81 1015.0
20260504192431 15 105 3.2 9.7 0.00 0.03 0.03 80 1015.0
20260504192331 15 136 3.2 9.7 0.00 0.03 0.03 80 1015.0
20260504192234 15 193 4.8 9.7 0.00 0.03 0.03 79 1015.0
20260504192132 15 203 3.2 9.7 0.00 0.03 0.03 79 1015.0
20260504192031 15 120 3.2 9.7 0.00 0.03 0.03 79 1015.1
20260504191923 15 137 3.2 9.7 0.00 0.03 0.03 79 1015.1
20260504191823 15 136 3.2 8.0 0.00 0.03 0.03 79 1015.1
20260504191724 15 134 3.2 8.0 0.00 0.03 0.03 79 1015.1
20260504191623 15 127 3.2 8.0 0.00 0.03 0.03 78 1015.1
20260504191525 15 127 3.2 8.0 0.00 0.03 0.03 78 1015.1
20260504191422 15 141 1.6 8.0 0.00 0.03 0.03 79 1015.0
20260504191322 15 221 1.6 8.0 0.00 0.03 0.03 78 1015.0
20260504191222 15 224 1.6 8.0 0.00 0.03 0.03 79 1015.0
20260504191120 15 146 1.6 8.0 0.00 0.03 0.03 78 1015.0
20260504191021 15 143 1.6 8.0 0.00 0.03 0.03 79 1015.0
20260504191006 15 121 1.6 6.4 0.00 0.03 0.03 80 1015.1
20260504190913 15 143 1.6 8.0 0.00 0.03 0.03 79 1015.0
20260504190845 15 242 1.6 4.8 0.00 0.03 0.03 80 1015.0
20260504190711 15 139 1.6 4.8 0.00 0.03 0.03 80 1015.1
20260504190628 15 139 1.6 4.8 0.00 0.03 0.03 79 1015.1
20260504190618 15 121 1.6 6.4 0.00 0.03 0.03 80 1015.1
20260504190408 15 134 1.6 6.4 0.00 0.03 0.03 80 1015.1
20260504190305 15 134 3.2 6.4 0.00 0.03 0.03 80 1015.1
20260504190206 15 135 3.2 6.4 0.00 0.03 0.03 80 1015.1
20260504190106 15 139 3.2 6.4 0.00 0.03 0.03 81 1015.0
20260504190008 15 136 3.2 6.4 0.00 0.03 0.03 81 1015.1
20260504185859 15 136 3.2 6.4 0.00 0.03 0.03 80 1015.1
20260504185800 15 148 3.2 6.4 0.00 0.03 0.03 79 1015.1
20260504185700 15 148 3.2 6.4 0.00 0.03 0.03 79 1015.1
20260504185559 15 136 3.2 6.4 0.00 0.03 0.03 79 1015.1
20260504185501 15 134 3.2 6.4 0.00 0.03 0.03 80 1015.1
20260504185353 15 108 3.2 6.4 0.00 0.03 0.03 80 1015.1
20260504185253 15 137 1.6 6.4 0.00 0.03 0.03 80 1015.1
20260504185153 15 148 3.2 6.4 0.00 0.03 0.03 80 1015.1
20260504185054 15 124 1.6 6.4 0.00 0.03 0.03 80 1015.1
20260504184956 15 120 3.2 6.4 0.00 0.03 0.03 82 1015.1
20260504184849 15 102 3.2 6.4 0.00 0.03 0.03 79 1015.2
20260504184748 15 218 3.2 11.3 0.00 0.03 0.03 80 1015.2
20260504184648 15 235 3.2 11.3 0.00 0.03 0.03 80 1015.2
20260504184548 15 146 3.2 11.3 0.00 0.03 0.03 80 1015.1
20260504184450 15 214 3.2 11.3 0.00 0.03 0.03 80 1015.2
20260504184341 15 231 3.2 11.3 0.00 0.03 0.03 80 1015.1
20260504184242 15 207 3.2 11.3 0.00 0.03 0.03 81 1015.1
20260504184142 15 228 3.2 11.3 0.00 0.03 0.03 81 1015.2
20260504184041 15 144 3.2 11.3 0.00 0.03 0.03 81 1015.2
20260504183942 15 167 3.2 11.3 0.00 0.03 0.03 80 1015.2
20260504183836 15 115 3.2 11.3 0.00 0.03 0.03 80 1015.2
20260504183735 15 197 3.2 11.3 0.00 0.03 0.03 79 1015.2
20260504183635 15 200 3.2 11.3 0.00 0.03 0.03 80 1015.2
20260504183536 15 203 3.2 11.3 0.00 0.03 0.03 82 1015.2
20260504183437 15 144 3.2 11.3 0.00 0.03 0.03 82 1015.2
20260504183332 15 122 3.2 11.3 0.00 0.03 0.03 81 1015.2
20260504183234 15 120 3.2 11.3 0.00 0.03 0.03 80 1015.2
20260504183130 15 211 3.2 11.3 0.00 0.03 0.03 80 1015.2
20260504183030 15 232 3.2 11.3 0.00 0.03 0.03 80 1015.2
20260504182931 15 156 3.2 11.3 0.00 0.03 0.03 80 1015.3
20260504182824 15 195 3.2 8.0 0.00 0.03 0.03 81 1015.2
20260504182724 15 120 3.2 8.0 0.00 0.03 0.03 82 1015.2
20260504182624 15 214 3.2 8.0 0.00 0.03 0.03 81 1015.2
20260504182523 15 131 3.2 8.0 0.00 0.03 0.03 82 1015.2
20260504182426 15 148 3.2 8.0 0.00 0.03 0.03 82 1015.2
20260504182320 15 201 3.2 9.7 0.00 0.03 0.03 81 1015.2
20260504182220 15 141 3.2 9.7 0.00 0.03 0.03 80 1015.2
20260504182144 15 132 1.6 9.7 0.00 0.03 0.03 81 1015.2
20260504182120 15 143 1.6 9.7 0.00 0.03 0.03 82 1015.1
20260504182033 15 183 1.6 9.7 0.00 0.03 0.03 81 1015.2
20260504182023 15 132 1.6 9.7 0.00 0.03 0.03 81 1015.2
20260504181814 15 139 1.6 9.7 0.00 0.03 0.03 80 1015.2
20260504181712 15 127 1.6 9.7 0.00 0.03 0.03 80 1015.2
20260504181612 15 124 1.6 9.7 0.00 0.03 0.03 79 1015.2
20260504181511 15 199 1.6 9.7 0.00 0.03 0.03 80 1015.2
20260504181413 15 217 1.6 9.7 0.00 0.03 0.03 81 1015.2
20260504181306 15 221 1.6 6.4 0.00 0.03 0.03 80 1015.2
20260504181206 15 248 1.6 6.4 0.00 0.03 0.03 80 1015.2
20260504181135 15 140 3.2 6.4 0.00 0.03 0.03 80 1015.2
20260504181106 15 256 3.2 6.4 0.00 0.03 0.03 79 1015.2
20260504181022 15 138 3.2 6.4 0.00 0.03 0.03 79 1015.2
20260504181012 15 140 3.2 6.4 0.00 0.03 0.03 80 1015.2
20260504180806 15 117 3.2 6.4 0.00 0.03 0.03 78 1015.2
20260504180704 15 131 3.2 6.4 0.00 0.03 0.03 79 1015.2
20260504180603 15 158 3.2 8.0 0.00 0.03 0.03 79 1015.2
20260504180501 15 158 3.2 8.0 0.00 0.03 0.03 79 1015.2
20260504180402 15 218 3.2 8.0 0.00 0.03 0.03 79 1015.1
20260504180254 15 148 3.2 8.0 0.00 0.03 0.03 78 1015.1
20260504180154 15 224 3.2 8.0 0.00 0.03 0.03 78 1015.1
20260504180054 15 154 3.2 11.3 0.00 0.03 0.03 79 1015.1
20260504175953 15 253 3.2 11.3 0.00 0.03 0.03 80 1015.1
20260504175856 15 141 3.2 11.3 0.00 0.03 0.03 79 1015.2
20260504175747 15 155 4.8 11.3 0.00 0.03 0.03 79 1015.1
20260504175648 15 207 4.8 11.3 0.00 0.03 0.03 79 1015.1
20260504175548 15 159 4.8 11.3 0.00 0.03 0.03 79 1015.1
20260504175447 15 219 4.8 11.3 0.00 0.03 0.03 79 1015.1
20260504175349 15 203 4.8 11.3 0.00 0.03 0.03 79 1015.1
20260504175242 15 243 4.8 11.3 0.00 0.03 0.03 79 1015.0
20260504175143 15 208 4.8 11.3 0.00 0.03 0.03 79 1015.0
20260504175040 14 251 4.8 11.3 0.00 0.03 0.03 79 1015.0
20260504174940 15 215 4.8 11.3 0.00 0.03 0.03 79 1015.0
20260504174841 14 248 4.8 11.3 0.00 0.03 0.03 79 1015.0
20260504174735 14 225 4.8 11.3 0.00 0.03 0.03 79 1015.0
20260504174634 14 205 4.8 11.3 0.00 0.03 0.03 79 1015.0
20260504174534 14 129 4.8 9.7 0.00 0.03 0.03 79 1015.0
20260504174434 14 139 4.8 9.7 0.00 0.03 0.03 79 1015.0
20260504174336 14 210 4.8 11.3 0.00 0.03 0.03 79 1014.9
20260504174312 14 129 4.8 11.3 0.00 0.03 0.03 79 1015.0
20260504174230 14 228 4.8 11.3 0.00 0.03 0.03 79 1015.0
20260504174159 14 210 4.8 11.3 0.00 0.03 0.03 78 1015.0
20260504174027 14 229 4.8 11.3 0.00 0.03 0.03 79 1014.9
20260504173945 14 219 3.2 11.3 0.00 0.03 0.03 79 1015.0
20260504173935 14 129 4.8 11.3 0.00 0.03 0.03 79 1015.0
20260504173724 14 239 4.8 11.3 0.00 0.03 0.03 79 1015.0
20260504173622 14 232 4.8 11.3 0.00 0.03 0.03 79 1015.0
20260504173546 14 210 3.2 11.3 0.00 0.03 0.03 79 1015.0
20260504173522 14 148 4.8 11.3 0.00 0.03 0.03 79 1014.9
20260504173440 14 166 3.2 11.3 0.00 0.03 0.03 79 1015.0
20260504173430 14 210 3.2 11.3 0.00 0.03 0.03 79 1015.0
20260504173220 14 217 3.2 8.0 0.00 0.03 0.03 79 1015.0
20260504173120 14 225 3.2 8.0 0.00 0.03 0.03 79 1015.0
20260504173017 14 228 3.2 8.0 0.00 0.03 0.03 78 1015.0
20260504172918 14 219 3.2 8.0 0.00 0.03 0.03 79 1015.0
20260504172818 14 221 3.2 8.0 0.00 0.03 0.03 79 1015.0
20260504172714 14 207 3.2 8.0 0.00 0.03 0.03 79 1015.0
20260504172614 14 126 3.2 6.4 0.00 0.03 0.03 79 1015.0
20260504172528 14 242 1.6 8.0 0.00 0.03 0.03 79 1015.0
20260504172514 14 205 3.2 6.4 0.00 0.03 0.03 79 1015.0
20260504172427 14 224 3.2 6.4 0.00 0.03 0.03 78 1015.0
20260504172416 14 242 1.6 8.0 0.00 0.03 0.03 79 1015.0
20260504172205 14 229 1.6 8.0 0.00 0.03 0.03 79 1015.0
20260504172106 14 236 1.6 8.0 0.00 0.03 0.03 79 1015.0
20260504172006 14 238 1.6 8.0 0.00 0.03 0.03 79 1015.0
20260504171905 14 229 1.6 8.0 0.00 0.03 0.03 80 1015.0
20260504171806 14 204 3.2 9.7 0.00 0.03 0.03 80 1015.0
20260504171659 14 120 3.2 9.7 0.00 0.03 0.03 80 1014.9
20260504171558 14 236 3.2 11.3 0.00 0.03 0.03 80 1014.9
20260504171459 14 236 3.2 11.3 0.00 0.03 0.03 80 1014.9
20260504171357 14 222 3.2 11.3 0.00 0.03 0.03 80 1014.9
20260504171300 14 245 3.2 11.3 0.00 0.03 0.03 80 1014.9
20260504171153 14 228 3.2 11.3 0.00 0.03 0.03 79 1014.9
20260504171052 14 212 3.2 11.3 0.00 0.03 0.03 79 1014.9
20260504170952 14 210 3.2 11.3 0.00 0.03 0.03 79 1014.9
20260504170852 14 257 3.2 11.3 0.00 0.03 0.03 80 1014.9
20260504170753 14 243 3.2 11.3 0.00 0.03 0.03 80 1014.9
20260504170648 14 235 3.2 8.0 0.00 0.03 0.03 80 1014.9
20260504170547 14 226 3.2 8.0 0.00 0.03 0.03 80 1014.9
20260504170515 14 197 3.2 6.4 0.00 0.03 0.03 79 1014.9
20260504170447 14 162 3.2 8.0 0.00 0.03 0.03 80 1014.9
20260504170403 14 255 3.2 6.4 0.00 0.03 0.03 80 1014.9
20260504170352 14 197 3.2 6.4 0.00 0.03 0.03 79 1014.9
20260504170140 14 217 3.2 8.0 0.00 0.03 0.03 80 1014.9
20260504160435 13 210 1.6 8.0 0.03 0.03 0.03 84 1014.7
20260504160336 13 218 1.6 8.0 0.03 0.03 0.03 84 1014.7
20260504160236 13 225 1.6 8.0 0.03 0.03 0.03 84 1014.7
20260504160137 13 218 1.6 8.0 0.03 0.03 0.03 85 1014.7
20260504151135 13 139 1.6 9.7 0.00 0.00 0.00 89 1014.2
20260504151035 13 139 1.6 9.7 0.00 0.00 0.00 89 1014.2
20260504150934 13 110 1.6 9.7 0.00 0.00 0.00 89 1014.3
20260504150832 13 110 1.6 9.7 0.00 0.00 0.00 89 1014.3
20260504150805 12 134 1.6 9.7 0.00 0.00 0.00 88 1014.3
20260504150732 13 110 1.6 9.7 0.00 0.00 0.00 88 1014.3
20260504150651 12 110 1.6 9.7 0.00 0.00 0.00 88 1014.3
20260504150423 12 132 1.6 9.7 0.00 0.00 0.00 87 1014.3
20260504150322 12 183 1.6 9.7 0.00 0.00 0.00 89 1014.4
20260504150221 13 134 1.6 6.4 0.00 0.00 0.00 89 1014.3
20260504150121 13 129 1.6 6.4 0.00 0.00 0.00 89 1014.4
20260504141327 12 193 3.2 8.0 0.00 0.00 0.00 87 1014.0
20260504141225 12 217 3.2 8.0 0.00 0.00 0.00 87 1013.9
20260504141126 12 145 3.2 8.0 0.00 0.00 0.00 87 1013.9
20260504141024 12 143 3.2 8.0 0.00 0.00 0.00 87 1013.9
20260504140923 12 218 3.2 8.0 0.00 0.00 0.00 87 1013.9
20260504140816 12 243 3.2 8.0 0.00 0.00 0.00 87 1013.9
20260504140716 12 207 3.2 6.4 0.00 0.00 0.00 87 1013.9
20260504140615 12 134 3.2 6.4 0.00 0.00 0.00 87 1013.9
20260504140516 12 211 3.2 6.4 0.00 0.00 0.00 87 1013.9
20260504140417 12 146 3.2 8.0 0.00 0.00 0.00 87 1013.8
20260504140310 12 179 3.2 8.0 0.00 0.00 0.00 87 1013.8
20260504140213 12 232 3.2 8.0 0.00 0.00 0.00 87 1013.9
20260504140109 12 218 3.2 8.0 0.00 0.00 0.00 87 1013.8
20260504130813 12 124 3.2 6.4 0.00 0.00 0.00 90 1013.9
20260504130705 12 110 3.2 6.4 0.00 0.00 0.00 90 1013.9
20260504130604 12 114 3.2 6.4 0.00 0.00 0.00 90 1013.9
20260504130503 12 99 3.2 6.4 0.00 0.00 0.00 90 1013.9
20260504130404 12 96 3.2 6.4 0.00 0.00 0.00 90 1014.0
20260504130305 12 116 3.2 6.4 0.00 0.00 0.00 90 1013.9
20260504130157 12 148 1.6 6.4 0.00 0.00 0.00 90 1013.9
20260504120254 11 141 1.6 6.4 0.00 0.00 0.00 89 1013.6
20260504120152 11 141 1.6 6.4 0.00 0.00 0.00 89 1013.6
20260504110646 11 228 1.6 6.4 0.00 0.00 0.00 89 1013.6
20260504110548 11 218 3.2 6.4 0.00 0.00 0.00 89 1013.6
20260504110442 11 218 3.2 6.4 0.00 0.00 0.00 89 1013.6
20260504110340 11 233 3.2 8.0 0.00 0.00 0.00 89 1013.6
20260504110240 11 245 3.2 8.0 0.00 0.00 0.00 89 1013.6
20260504110139 11 228 3.2 8.0 0.00 0.00 0.00 89 1013.6
20260504100549 12 148 1.6 6.4 0.00 0.00 0.00 87 1013.5
20260504100539 12 239 1.6 6.4 0.00 0.00 0.00 87 1013.5
20260504100328 12 163 1.6 6.4 0.00 0.00 0.00 87 1013.5
20260504100230 12 194 1.6 6.4 0.00 0.00 0.00 87 1013.4
20260504100128 12 232 1.6 6.4 0.00 0.00 0.00 87 1013.5
20260504090115 12 255 6.4 17.7 0.00 0.00 0.00 83 1013.5
20260504081928 13 158 6.4 17.7 0.00 0.00 0.00 82 1013.5
20260504081827 13 217 6.4 17.7 0.00 0.00 0.00 82 1013.5
20260504081732 13 260 4.8 17.7 0.00 0.00 0.00 82 1013.5
20260504081623 13 248 4.8 17.7 0.00 0.00 0.00 82 1013.5
20260504081523 13 238 4.8 17.7 0.00 0.00 0.00 82 1013.5
20260504081425 13 238 4.8 12.9 0.00 0.00 0.00 82 1013.5
20260504081324 13 240 4.8 16.1 0.00 0.00 0.00 82 1013.4
20260504081224 13 235 4.8 16.1 0.00 0.00 0.00 82 1013.5
20260504081115 13 217 4.8 16.1 0.00 0.00 0.00 82 1013.4
20260504081015 13 231 4.8 16.1 0.00 0.00 0.00 82 1013.5
20260504080916 13 223 4.8 17.7 0.00 0.00 0.00 82 1013.5
20260504080818 13 204 6.4 17.7 0.00 0.00 0.00 82 1013.5
20260504080719 13 236 6.4 17.7 0.00 0.00 0.00 82 1013.6
20260504080609 13 225 6.4 17.7 0.00 0.00 0.00 82 1013.6
20260504080510 13 221 6.4 17.7 0.00 0.00 0.00 82 1013.6
20260504080410 13 285 6.4 17.7 0.00 0.00 0.00 82 1013.6
20260504080310 13 215 6.4 17.7 0.00 0.00 0.00 82 1013.7
20260504080213 13 231 6.4 17.7 0.00 0.00 0.00 82 1013.7
20260504080153 13 276 6.4 17.7 0.00 0.00 0.00 82 1013.7
20260504080105 13 236 6.4 17.7 0.00 0.00 0.00 82 1013.7
20260504070359 13 225 4.8 12.9 0.00 0.00 0.00 80 1013.4
20260504070300 13 226 4.8 12.9 0.00 0.00 0.00 80 1013.4
20260504070159 13 232 4.8 14.5 0.00 0.00 0.00 80 1013.4
20260504070118 13 248 4.8 14.5 0.00 0.00 0.00 80 1013.4
20260504060244 13 233 4.8 12.9 0.00 0.00 0.00 79 1013.4
20260504060144 13 255 4.8 16.1 0.00 0.00 0.00 79 1013.4
20260504050710 13 219 4.8 12.9 0.00 0.00 0.00 78 1013.1
20260504050652 13 240 4.8 12.9 0.00 0.00 0.00 78 1013.1
20260504050508 13 217 4.8 12.9 0.00 0.00 0.00 78 1013.1
20260504050403 13 200 4.8 12.9 0.00 0.00 0.00 78 1013.2
20260504050304 13 238 6.4 12.9 0.00 0.00 0.00 78 1013.2
20260504050204 13 225 6.4 12.9 0.00 0.00 0.00 78 1013.1
20260504050105 13 248 6.4 12.9 0.00 0.00 0.00 78 1013.1
20260504050002 13 165 6.4 12.9 0.00 0.00 0.00 78 1013.0
20260504045857 14 236 6.4 16.1 0.00 0.00 0.00 78 1013.1
20260504045756 14 211 6.4 16.1 0.00 0.00 0.00 77 1013.0
20260504045656 14 211 6.4 16.1 0.00 0.00 0.00 77 1013.0
20260504045556 14 232 6.4 16.1 0.00 0.00 0.00 77 1013.1
20260504045539 14 218 6.4 16.1 0.00 0.00 0.00 77 1013.1
20260504045455 14 219 6.4 16.1 0.00 0.00 0.00 77 1013.1
20260504045356 14 248 6.4 16.1 0.00 0.00 0.00 77 1013.1
20260504045301 14 239 6.4 16.1 0.00 0.00 0.00 77 1013.1
20260504045257 14 242 6.4 16.1 0.00 0.00 0.00 77 1013.0
20260504045159 14 270 6.4 16.1 0.00 0.00 0.00 77 1013.1
20260504045148 14 242 6.4 16.1 0.00 0.00 0.00 77 1013.1
20260504044956 14 249 6.4 16.1 0.00 0.00 0.00 77 1013.1
20260504044856 14 228 6.4 16.1 0.00 0.00 0.00 77 1013.1
20260504044805 14 245 8.0 19.3 0.00 0.00 0.00 76 1012.9
20260504044754 14 231 6.4 16.1 0.00 0.00 0.00 77 1013.0
20260504044655 14 207 6.4 16.1 0.00 0.00 0.00 77 1013.0
20260504044646 14 245 6.4 19.3 0.00 0.00 0.00 77 1012.9
20260504044452 14 232 8.0 19.3 0.00 0.00 0.00 76 1012.9
20260504044352 14 242 8.0 19.3 0.00 0.00 0.00 76 1012.9
20260504044249 14 249 8.0 19.3 0.00 0.00 0.00 76 1012.8
20260504044150 14 255 8.0 19.3 0.00 0.00 0.00 76 1012.8
20260504044050 14 248 8.0 19.3 0.00 0.00 0.00 76 1012.8
20260504044036 14 243 8.0 19.3 0.00 0.00 0.00 76 1012.8
20260504043949 14 243 8.0 19.3 0.00 0.00 0.00 76 1012.8
20260504043850 14 207 6.4 19.3 0.00 0.00 0.00 76 1012.8
20260504043748 14 271 6.4 19.3 0.00 0.00 0.00 76 1012.8
20260504043643 14 233 6.4 16.1 0.00 0.00 0.00 76 1012.8
20260504043546 14 250 6.4 16.1 0.00 0.00 0.00 75 1012.8
20260504043536 14 276 4.8 16.1 0.00 0.00 0.00 75 1012.8
20260504043444 14 235 4.8 14.5 0.00 0.00 0.00 75 1012.8
20260504043342 14 222 6.4 14.5 0.00 0.00 0.00 75 1012.8
20260504043242 15 226 6.4 14.5 0.00 0.00 0.00 75 1012.8
20260504043140 15 231 6.4 14.5 0.00 0.00 0.00 75 1012.8
20260504043039 15 248 4.8 14.5 0.00 0.00 0.00 75 1012.8
20260504042938 15 233 6.4 14.5 0.00 0.00 0.00 75 1012.8
20260504042838 15 228 6.4 14.5 0.00 0.00 0.00 75 1012.7
20260504042734 15 243 6.4 14.5 0.00 0.00 0.00 75 1012.7
20260504042632 15 238 6.4 19.3 0.00 0.00 0.00 75 1012.7
20260504042536 15 248 6.4 19.3 0.00 0.00 0.00 75 1012.7
20260504042530 15 238 6.4 19.3 0.00 0.00 0.00 75 1012.7
20260504042430 15 219 6.4 19.3 0.00 0.00 0.00 75 1012.7
20260504042330 15 245 6.4 19.3 0.00 0.00 0.00 75 1012.7
20260504042254 15 241 6.4 19.3 0.00 0.00 0.00 75 1012.7
20260504042230 15 215 6.4 19.3 0.00 0.00 0.00 75 1012.7
20260504042146 15 230 6.4 19.3 0.00 0.00 0.00 75 1012.7
20260504042020 15 250 6.4 19.3 0.00 0.00 0.00 75 1012.7
20260504041920 15 259 6.4 19.3 0.00 0.00 0.00 74 1012.7
20260504041820 15 245 6.4 19.3 0.00 0.00 0.00 74 1012.7
20260504041718 15 210 6.4 19.3 0.00 0.00 0.00 74 1012.7
20260504041613 15 259 6.4 14.5 0.00 0.00 0.00 74 1012.7
20260504041534 15 228 6.4 14.5 0.00 0.00 0.00 74 1012.7
20260504041513 15 219 6.4 14.5 0.00 0.00 0.00 74 1012.7
20260504041414 15 238 6.4 14.5 0.00 0.00 0.00 74 1012.6
20260504041314 15 238 6.4 14.5 0.00 0.00 0.00 74 1012.7
20260504041213 15 250 6.4 14.5 0.00 0.00 0.00 74 1012.7
20260504041109 15 269 6.4 14.5 0.00 0.00 0.00 74 1012.6
20260504041034 15 249 6.4 14.5 0.00 0.00 0.00 74 1012.6
20260504041009 15 236 6.4 14.5 0.00 0.00 0.00 74 1012.6
20260504040910 15 177 6.4 14.5 0.00 0.00 0.00 74 1012.6
20260504040810 15 231 4.8 14.5 0.00 0.00 0.00 74 1012.7
20260504040707 15 226 6.4 14.5 0.00 0.00 0.00 74 1012.7
20260504040601 15 212 6.4 14.5 0.00 0.00 0.00 74 1012.7
20260504040534 15 230 6.4 14.5 0.00 0.00 0.00 74 1012.6
20260504040502 15 250 6.4 14.5 0.00 0.00 0.00 74 1012.6
20260504040402 15 255 4.8 14.5 0.00 0.00 0.00 74 1012.7
20260504040302 15 259 4.8 12.9 0.00 0.00 0.00 74 1012.6
20260504040201 15 210 6.4 14.5 0.00 0.00 0.00 74 1012.6
20260504040058 15 236 6.4 14.5 0.00 0.00 0.00 74 1012.5
20260504040047 15 215 4.8 14.5 0.00 0.00 0.00 74 1012.5
20260504035956 15 231 4.8 14.5 0.00 0.00 0.00 74 1012.5
20260504035856 15 224 4.8 14.5 0.00 0.00 0.00 74 1012.5
20260504035800 15 239 4.8 14.5 0.00 0.00 0.00 74 1012.5
20260504035756 15 255 4.8 14.5 0.00 0.00 0.00 74 1012.5
20260504035656 15 228 4.8 14.5 0.00 0.00 0.00 74 1012.5
20260504035645 15 250 4.8 14.5 0.00 0.00 0.00 74 1012.5
20260504035450 15 249 4.8 14.5 0.00 0.00 0.00 74 1012.5
20260504035349 15 278 4.8 14.5 0.00 0.00 0.00 74 1012.5
20260504035255 15 172 3.2 11.3 0.00 0.00 0.00 74 1012.4
20260504035250 15 289 3.2 14.5 0.00 0.00 0.00 74 1012.5
20260504035155 15 250 3.2 11.3 0.00 0.00 0.00 74 1012.5
20260504035144 15 172 3.2 11.3 0.00 0.00 0.00 74 1012.4
20260504034945 15 240 3.2 11.3 0.00 0.00 0.00 74 1012.5
20260504034844 15 247 3.2 11.3 0.00 0.00 0.00 74 1012.5
20260504034643 15 238 3.2 11.3 0.00 0.00 0.00 74 1012.4
20260504034542 15 253 3.2 11.3 0.00 0.00 0.00 74 1012.5
20260504034533 15 253 3.2 14.5 0.00 0.00 0.00 74 1012.5
20260504034438 15 224 3.2 16.1 0.00 0.00 0.00 74 1012.4
20260504034337 15 239 3.2 16.1 0.00 0.00 0.00 74 1012.4
20260504034238 15 248 3.2 16.1 0.00 0.00 0.00 74 1012.4
20260504034137 15 274 3.2 16.1 0.00 0.00 0.00 73 1012.3
20260504034034 15 215 1.6 16.1 0.00 0.00 0.00 73 1012.3
20260504033932 15 236 3.2 16.1 0.00 0.00 0.00 73 1012.3
20260504033832 15 242 3.2 16.1 0.00 0.00 0.00 73 1012.2
20260504033732 15 235 3.2 16.1 0.00 0.00 0.00 73 1012.3
20260504033631 15 284 3.2 16.1 0.00 0.00 0.00 73 1012.2
20260504033533 15 212 3.2 11.3 0.00 0.00 0.00 73 1012.3
20260504033431 15 238 3.2 11.3 0.00 0.00 0.00 73 1012.3
20260504033330 15 236 3.2 11.3 0.00 0.00 0.00 73 1012.3
20260504033226 15 248 3.2 11.3 0.00 0.00 0.00 73 1012.3
20260504033126 15 248 3.2 12.9 0.00 0.00 0.00 73 1012.3
20260504033022 15 273 3.2 12.9 0.00 0.00 0.00 73 1012.3
20260504032922 15 210 3.2 12.9 0.00 0.00 0.00 73 1012.3
20260504032820 15 231 3.2 12.9 0.00 0.00 0.00 73 1012.3
20260504032719 15 249 3.2 12.9 0.00 0.00 0.00 73 1012.2
20260504032619 15 210 3.2 12.9 0.00 0.00 0.00 72 1012.3
20260504032529 15 191 3.2 12.9 0.00 0.00 0.00 72 1012.2
20260504032520 15 236 3.2 12.9 0.00 0.00 0.00 72 1012.2
20260504032418 15 228 3.2 14.5 0.00 0.00 0.00 72 1012.2
20260504032323 15 228 3.2 14.5 0.00 0.00 0.00 72 1012.2
20260504032216 15 288 3.2 14.5 0.00 0.00 0.00 72 1012.1
20260504032113 15 243 3.2 14.5 0.00 0.00 0.00 72 1012.1
20260504032009 16 238 4.8 17.7 0.00 0.00 0.00 72 1012.1
20260504031908 16 226 3.2 17.7 0.00 0.00 0.00 72 1012.1
20260504031808 16 248 3.2 17.7 0.00 0.00 0.00 72 1012.0
20260504031708 16 195 3.2 17.7 0.00 0.00 0.00 72 1012.0
20260504031607 16 228 3.2 17.7 0.00 0.00 0.00 72 1012.1
20260504031525 16 234 3.2 17.7 0.00 0.00 0.00 72 1012.0
20260504031503 16 226 3.2 17.7 0.00 0.00 0.00 71 1012.0
20260504031404 16 240 3.2 17.7 0.00 0.00 0.00 71 1012.0
20260504031303 16 242 4.8 17.7 0.00 0.00 0.00 71 1012.1
20260504031204 16 214 4.8 17.7 0.00 0.00 0.00 71 1012.0
20260504031104 16 260 3.2 17.7 0.00 0.00 0.00 71 1012.0
20260504031026 16 239 4.8 17.7 0.00 0.00 0.00 71 1012.0
20260504031003 16 204 4.8 17.7 0.00 0.00 0.00 71 1012.0
20260504030904 16 218 4.8 17.7 0.00 0.00 0.00 71 1012.0
20260504030802 16 253 4.8 17.7 0.00 0.00 0.00 71 1012.1
20260504030702 16 316 4.8 17.7 0.00 0.00 0.00 71 1012.0
20260504030602 16 315 4.8 17.7 0.00 0.00 0.00 71 1012.0
20260504030526 16 252 4.8 17.7 0.00 0.00 0.00 71 1012.0
20260504030502 16 214 4.8 17.7 0.00 0.00 0.00 71 1012.0
20260504030402 16 259 4.8 17.7 0.00 0.00 0.00 70 1012.0
20260504030302 16 239 4.8 17.7 0.00 0.00 0.00 70 1012.0
20260504030202 16 122 4.8 16.1 0.00 0.00 0.00 70 1011.9
20260504030100 16 271 4.8 19.3 0.00 0.00 0.00 70 1011.9
20260504030024 16 284 3.2 19.3 0.00 0.00 0.00 70 1011.9
20260504030000 16 298 3.2 19.3 0.00 0.00 0.00 70 1011.9
20260504025858 16 291 4.8 19.3 0.00 0.00 0.00 70 1011.9
20260504025758 16 235 4.8 19.3 0.00 0.00 0.00 70 1011.9
20260504025657 16 219 4.8 19.3 0.00 0.00 0.00 70 1011.9
20260504025558 16 224 4.8 19.3 0.00 0.00 0.00 70 1011.9
20260504025524 16 253 4.8 19.3 0.00 0.00 0.00 69 1011.8
20260504025458 16 238 4.8 19.3 0.00 0.00 0.00 69 1011.8
20260504025357 16 273 3.2 19.3 0.00 0.00 0.00 69 1011.9
20260504025252 16 236 3.2 19.3 0.00 0.00 0.00 69 1011.9
20260504025152 16 269 3.2 19.3 0.00 0.00 0.00 69 1011.9
20260504025052 16 300 3.2 17.7 0.00 0.00 0.00 69 1011.8
20260504025024 16 284 3.2 17.7 0.00 0.00 0.00 69 1011.8
20260504024952 16 242 3.2 17.7 0.00 0.00 0.00 69 1011.8
20260504024849 16 242 3.2 17.7 0.00 0.00 0.00 68 1011.8
20260504024744 16 259 3.2 17.7 0.00 0.00 0.00 68 1011.8
20260504024645 16 255 3.2 17.7 0.00 0.00 0.00 68 1011.7
20260504024543 16 251 3.2 9.7 0.00 0.00 0.00 68 1011.7
20260504024524 16 236 3.2 9.7 0.00 0.00 0.00 68 1011.7
20260504024443 16 267 3.2 9.7 0.00 0.00 0.00 68 1011.7
20260504024343 16 233 3.2 9.7 0.00 0.00 0.00 68 1011.7
20260504024243 16 226 3.2 19.3 0.00 0.00 0.00 67 1011.6
20260504024237 16 307 3.2 19.3 0.00 0.00 0.00 67 1011.7
20260504024140 16 244 3.2 19.3 0.00 0.00 0.00 67 1011.7
20260504024128 16 245 3.2 19.3 0.00 0.00 0.00 67 1011.6
20260504023938 16 262 3.2 19.3 0.00 0.00 0.00 67 1011.6
20260504023837 16 231 3.2 19.3 0.00 0.00 0.00 67 1011.6
20260504023735 17 270 3.2 19.3 0.00 0.00 0.00 67 1011.6
20260504023636 17 221 3.2 19.3 0.00 0.00 0.00 67 1011.6
20260504023534 17 212 3.2 19.3 0.00 0.00 0.00 67 1011.6
20260504023511 17 192 3.2 19.3 0.00 0.00 0.00 67 1011.6
20260504023434 17 270 3.2 19.3 0.00 0.00 0.00 67 1011.6
20260504023331 17 280 3.2 19.3 0.00 0.00 0.00 67 1011.6
20260504023230 17 250 3.2 19.3 0.00 0.00 0.00 66 1011.6
20260504023129 17 318 3.2 19.3 0.00 0.00 0.00 66 1011.5
20260504023006 17 235 3.2 19.3 0.00 0.00 0.00 66 1011.6
20260504022928 17 301 3.2 19.3 0.00 0.00 0.00 66 1011.5
20260504022824 17 266 4.8 19.3 0.00 0.00 0.00 66 1011.5
20260504022725 17 297 4.8 19.3 0.00 0.00 0.00 65 1011.5
20260504022719 17 248 4.8 19.3 0.00 0.00 0.00 66 1011.5
20260504022620 17 256 4.8 19.3 0.00 0.00 0.00 66 1011.5
20260504022612 17 281 4.8 19.3 0.00 0.00 0.00 65 1011.5
20260504022420 17 245 4.8 19.3 0.00 0.00 0.00 65 1011.5
20260504022319 17 262 4.8 19.3 0.00 0.00 0.00 65 1011.5
20260504022214 17 238 6.4 25.7 0.00 0.00 0.00 65 1011.4
20260504022114 17 270 6.4 25.7 0.00 0.00 0.00 64 1011.4
20260504022016 17 231 6.4 25.7 0.00 0.00 0.00 64 1011.4
20260504022005 17 269 6.4 25.7 0.00 0.00 0.00 64 1011.4
20260504021914 17 248 6.4 25.7 0.00 0.00 0.00 64 1011.3
20260504021813 17 242 6.4 25.7 0.00 0.00 0.00 63 1011.4
20260504021720 17 207 6.4 25.7 0.00 0.00 0.00 62 1011.3
20260504021712 17 240 6.4 25.7 0.00 0.00 0.00 63 1011.3
20260504021612 17 214 6.4 25.7 0.00 0.00 0.00 62 1011.3
20260504021557 17 236 6.4 25.7 0.00 0.00 0.00 62 1011.3
20260504021410 17 228 6.4 25.7 0.00 0.00 0.00 62 1011.3
20260504021307 17 232 6.4 25.7 0.00 0.00 0.00 62 1011.3
20260504021207 17 163 4.8 17.7 0.00 0.00 0.00 63 1011.3
20260504021202 17 225 4.8 17.7 0.00 0.00 0.00 63 1011.3
20260504021104 17 242 4.8 17.7 0.00 0.00 0.00 63 1011.3
20260504021055 17 259 4.8 17.7 0.00 0.00 0.00 63 1011.3
20260504020902 17 233 4.8 17.7 0.00 0.00 0.00 63 1011.3
20260504020802 17 269 4.8 17.7 0.00 0.00 0.00 63 1011.3
20260504020700 17 257 3.2 17.7 0.00 0.00 0.00 63 1011.4
20260504020559 17 190 4.8 17.7 0.00 0.00 0.00 63 1011.3
20260504020457 17 323 3.2 17.7 0.00 0.00 0.00 63 1011.2
20260504020443 17 174 3.2 17.7 0.00 0.00 0.00 63 1011.2
20260504020358 17 249 3.2 17.7 0.00 0.00 0.00 63 1011.2
20260504020255 17 260 3.2 17.7 0.00 0.00 0.00 63 1011.2
20260504020203 17 294 4.8 17.7 0.00 0.00 0.00 62 1011.2
20260504020156 17 235 3.2 17.7 0.00 0.00 0.00 63 1011.2
20260504020104 17 225 3.2 17.7 0.00 0.00 0.00 62 1011.2
20260504020055 17 278 4.8 17.7 0.00 0.00 0.00 62 1011.1
20260504015852 17 333 4.8 17.7 0.00 0.00 0.00 62 1011.2
20260504015749 17 301 4.8 17.7 0.00 0.00 0.00 61 1011.1
20260504015644 17 290 4.8 17.7 0.00 0.00 0.00 61 1011.1
20260504015544 17 232 4.8 17.7 0.00 0.00 0.00 61 1011.1
20260504015446 17 274 4.8 17.7 0.00 0.00 0.00 61 1011.1
20260504015344 17 248 4.8 17.7 0.00 0.00 0.00 61 1011.0
20260504015243 17 239 4.8 17.7 0.00 0.00 0.00 61 1011.0
20260504015142 17 259 4.8 16.1 0.00 0.00 0.00 61 1011.1
20260504015041 17 219 4.8 16.1 0.00 0.00 0.00 61 1011.1
20260504014947 18 219 4.8 16.1 0.00 0.00 0.00 60 1011.1
20260504014940 18 264 4.8 16.1 0.00 0.00 0.00 60 1011.1
20260504014839 18 243 4.8 16.1 0.00 0.00 0.00 60 1011.1
20260504014739 18 257 4.8 16.1 0.00 0.00 0.00 60 1011.1
20260504014638 18 212 4.8 16.1 0.00 0.00 0.00 60 1011.0
20260504014538 18 257 4.8 16.1 0.00 0.00 0.00 60 1011.1
20260504014444 18 248 4.8 16.1 0.00 0.00 0.00 60 1011.1
20260504014438 18 245 4.8 16.1 0.00 0.00 0.00 60 1011.0
20260504014337 18 259 6.4 16.1 0.00 0.00 0.00 60 1011.0
20260504014238 18 287 6.4 16.1 0.00 0.00 0.00 60 1010.9
20260504014136 18 198 6.4 19.3 0.00 0.00 0.00 61 1011.0
20260504014036 18 273 6.4 25.7 0.00 0.00 0.00 60 1011.0
20260504013935 18 236 6.4 25.7 0.00 0.00 0.00 61 1011.0
20260504013836 18 245 6.4 25.7 0.00 0.00 0.00 60 1011.0
20260504013734 18 239 6.4 25.7 0.00 0.00 0.00 60 1011.1
20260504013706 18 221 6.4 25.7 0.00 0.00 0.00 60 1011.0
20260504013634 18 229 6.4 25.7 0.00 0.00 0.00 60 1011.0
20260504013552 18 229 6.4 25.7 0.00 0.00 0.00 60 1011.1
20260504013431 18 281 6.4 25.7 0.00 0.00 0.00 60 1011.0
20260504013332 18 263 6.4 25.7 0.00 0.00 0.00 60 1011.1
20260504013231 18 240 6.4 25.7 0.00 0.00 0.00 60 1011.1
20260504013132 18 215 6.4 25.7 0.00 0.00 0.00 60 1011.1
20260504013031 18 229 6.4 20.9 0.00 0.00 0.00 60 1011.0
20260504012942 18 243 6.4 20.9 0.00 0.00 0.00 60 1011.0
20260504012929 18 218 6.4 20.9 0.00 0.00 0.00 60 1011.0
20260504012830 18 229 6.4 20.9 0.00 0.00 0.00 60 1011.0
20260504012727 18 257 4.8 20.9 0.00 0.00 0.00 60 1011.1
20260504012628 18 197 6.4 20.9 0.00 0.00 0.00 60 1011.1
20260504012524 18 262 6.4 20.9 0.00 0.00 0.00 61 1011.1
20260504012441 18 250 6.4 20.9 0.00 0.00 0.00 60 1011.0
20260504012418 18 285 6.4 24.1 0.00 0.00 0.00 60 1011.0
20260504012317 18 257 6.4 24.1 0.00 0.00 0.00 60 1011.1
20260504012218 18 215 6.4 24.1 0.00 0.00 0.00 61 1011.0
20260504012206 18 307 6.4 24.1 0.00 0.00 0.00 61 1011.1
20260504012118 18 252 6.4 24.1 0.00 0.00 0.00 61 1011.0
20260504012054 18 215 6.4 24.1 0.00 0.00 0.00 61 1011.1
20260504011914 18 248 8.0 24.1 0.00 0.00 0.00 61 1011.1
20260504011815 18 266 8.0 24.1 0.00 0.00 0.00 61 1011.1
20260504011715 18 242 8.0 24.1 0.00 0.00 0.00 60 1011.1
20260504011706 18 245 6.4 24.1 0.00 0.00 0.00 60 1011.1
20260504011614 18 219 8.0 24.1 0.00 0.00 0.00 60 1011.1
20260504011552 18 245 8.0 24.1 0.00 0.00 0.00 60 1011.1
20260504011408 18 233 6.4 20.9 0.00 0.00 0.00 60 1011.1
20260504011308 18 224 6.4 20.9 0.00 0.00 0.00 60 1011.1
20260504011208 18 248 4.8 20.9 0.00 0.00 0.00 60 1011.1
20260504011108 18 231 4.8 20.9 0.00 0.00 0.00 61 1011.0
20260504011005 18 231 4.8 20.9 0.00 0.00 0.00 61 1011.0
20260504010943 18 203 4.8 20.9 0.00 0.00 0.00 61 1011.0
20260504010900 18 226 4.8 16.1 0.00 0.00 0.00 61 1011.0
20260504010800 18 262 6.4 17.7 0.00 0.00 0.00 61 1011.0
20260504010659 18 319 6.4 17.7 0.00 0.00 0.00 60 1011.0
20260504010600 18 253 6.4 17.7 0.00 0.00 0.00 61 1011.0
20260504010458 18 235 4.8 17.7 0.00 0.00 0.00 61 1011.0
20260504010441 18 284 4.8 17.7 0.00 0.00 0.00 61 1011.0
20260504010352 18 212 6.4 17.7 0.00 0.00 0.00 61 1011.0
20260504010252 18 301 6.4 17.7 0.00 0.00 0.00 60 1011.0
20260504010152 18 250 6.4 17.7 0.00 0.00 0.00 60 1011.0
20260504010054 18 288 6.4 17.7 0.00 0.00 0.00 60 1011.0
20260504005953 18 228 6.4 17.7 0.00 0.00 0.00 60 1011.0
20260504005943 18 221 6.4 17.7 0.00 0.00 0.00 60 1011.0
20260504005846 18 250 6.4 17.7 0.00 0.00 0.00 59 1011.0
20260504005746 18 231 4.8 17.7 0.00 0.00 0.00 60 1011.0
20260504005645 18 212 4.8 17.7 0.00 0.00 0.00 60 1011.0
20260504005546 18 240 4.8 17.7 0.00 0.00 0.00 60 1011.0
20260504005444 18 193 4.8 17.7 0.00 0.00 0.00 59 1011.0
20260504005338 18 250 4.8 17.7 0.00 0.00 0.00 59 1011.0
20260504005238 18 287 4.8 17.7 0.00 0.00 0.00 59 1011.0
20260504005038 18 248 4.8 16.1 0.00 0.00 0.00 60 1011.0
20260504004943 18 233 4.8 16.1 0.00 0.00 0.00 60 1011.0
20260504004937 18 212 6.4 16.1 0.00 0.00 0.00 60 1011.0
20260504004831 18 253 6.4 20.9 0.00 0.00 0.00 60 1010.9
20260504004732 18 243 6.4 20.9 0.00 0.00 0.00 60 1011.0
20260504004632 18 233 6.4 20.9 0.00 0.00 0.00 60 1011.0
20260504004531 18 248 6.4 20.9 0.00 0.00 0.00 60 1011.0
20260504004439 18 278 6.4 20.9 0.00 0.00 0.00 60 1011.0
20260504004431 18 245 6.4 20.9 0.00 0.00 0.00 60 1011.0
20260504004328 18 287 4.8 20.9 0.00 0.00 0.00 60 1011.1
20260504004226 18 235 4.8 20.9 0.00 0.00 0.00 60 1011.0
20260504004126 18 240 4.8 20.9 0.00 0.00 0.00 60 1011.1
20260504004026 18 252 4.8 20.9 0.00 0.00 0.00 61 1011.0
20260504003938 18 294 4.8 20.9 0.00 0.00 0.00 61 1011.0
20260504003925 18 260 4.8 20.9 0.00 0.00 0.00 61 1011.0
20260504003823 18 241 4.8 17.7 0.00 0.00 0.00 61 1011.1
20260504003725 18 248 4.8 17.7 0.00 0.00 0.00 61 1011.0
20260504003713 18 264 4.8 17.7 0.00 0.00 0.00 61 1011.1
20260504003622 18 245 4.8 17.7 0.00 0.00 0.00 61 1011.0
20260504003552 18 186 4.8 17.7 0.00 0.00 0.00 61 1011.0
20260504003419 18 226 4.8 17.7 0.00 0.00 0.00 61 1011.1
20260504003315 18 231 4.8 17.7 0.00 0.00 0.00 60 1011.0
20260504003216 18 224 4.8 17.7 0.00 0.00 0.00 60 1011.0
20260504003116 18 230 3.2 16.1 0.00 0.00 0.00 60 1011.0
20260504003017 18 274 3.2 16.1 0.00 0.00 0.00 60 1011.0
20260504002938 18 248 3.2 16.1 0.00 0.00 0.00 60 1011.0
20260504002913 18 236 3.2 16.1 0.00 0.00 0.00 60 1011.0
20260504002807 18 228 3.2 16.1 0.00 0.00 0.00 60 1011.0
20260504002708 18 203 3.2 14.5 0.00 0.00 0.00 60 1011.0
20260504002608 18 232 3.2 16.1 0.00 0.00 0.00 60 1011.0
20260504002507 18 300 3.2 16.1 0.00 0.00 0.00 60 1011.0
20260504002436 18 224 4.8 16.1 0.00 0.00 0.00 60 1011.0
20260504002407 18 245 4.8 16.1 0.00 0.00 0.00 60 1011.0
20260504002303 18 276 4.8 20.9 0.00 0.00 0.00 60 1011.0
20260504002202 18 289 4.8 20.9 0.00 0.00 0.00 60 1011.0
20260504002102 18 319 4.8 20.9 0.00 0.00 0.00 60 1011.0
20260504002002 18 287 4.8 20.9 0.00 0.00 0.00 59 1011.0
20260504001937 18 297 4.8 20.9 0.00 0.00 0.00 59 1011.0
20260504001901 19 284 4.8 20.9 0.00 0.00 0.00 59 1011.0
20260504001758 19 250 6.4 20.9 0.00 0.00 0.00 59 1011.0
20260504001556 19 240 6.4 22.5 0.00 0.00 0.00 60 1011.1
20260504001456 19 231 6.4 22.5 0.00 0.00 0.00 59 1011.1
20260504001436 19 240 6.4 22.5 0.00 0.00 0.00 59 1011.0
20260504001355 19 215 6.4 22.5 0.00 0.00 0.00 60 1011.0
20260504001252 19 288 6.4 22.5 0.00 0.00 0.00 59 1011.0
20260504001150 19 248 6.4 22.5 0.00 0.00 0.00 59 1011.0
20260504001050 19 243 6.4 22.5 0.00 0.00 0.00 59 1011.0
20260504000949 19 276 6.4 22.5 0.00 0.00 0.00 58 1011.0
20260504000933 19 276 8.0 22.5 0.00 0.00 0.00 58 1011.0
20260504000850 19 222 8.0 29.0 0.00 0.00 0.00 58 1011.1
20260504000748 19 270 8.0 29.0 0.00 0.00 0.00 58 1011.1
20260504000648 19 226 8.0 29.0 0.00 0.00 0.00 58 1011.1
20260504000547 19 203 8.0 29.0 0.00 0.00 0.00 58 1011.0
20260504000448 19 253 8.0 29.0 0.00 0.00 0.00 59 1011.0
20260504000433 19 281 8.0 29.0 0.00 0.00 0.00 58 1011.0
20260504000349 19 281 8.0 29.0 0.00 0.00 0.00 58 1011.1
20260504000241 19 280 8.0 29.0 0.00 0.00 0.00 57 1011.1
20260504000138 19 242 6.4 29.0 0.00 0.00 0.00 57 1011.1
20260504000036 20 231 6.4 29.0 0.00 0.00 0.00 57 1011.1
20260503235938 20 225 4.8 29.0 0.00 0.00 0.00 57 1011.1
20260503235833 20 258 4.8 16.1 0.00 0.00 0.00 56 1011.1
20260503235730 20 239 4.8 16.1 0.00 0.00 0.00 57 1011.1
20260503235627 20 205 3.2 16.1 0.00 0.00 0.00 56 1011.1
20260503235528 20 183 3.2 16.1 0.00 0.00 0.00 57 1011.1
20260503235436 20 249 3.2 16.1 0.00 0.00 0.00 56 1011.1
20260503235428 20 276 3.2 16.1 0.00 0.00 0.00 57 1011.1
20260503235327 20 76 3.2 16.1 0.00 0.00 0.00 57 1011.1
20260503235222 20 243 3.2 16.1 0.00 0.00 0.00 58 1011.1
20260503235204 20 235 1.6 16.1 0.00 0.00 0.00 57 1011.1
20260503235042 20 231 3.2 16.1 0.00 0.00 0.00 58 1011.1
20260503234922 20 214 1.6 16.1 0.00 0.00 0.00 57 1011.1
20260503234821 20 181 1.6 9.7 0.00 0.00 0.00 57 1011.2
20260503234718 20 248 1.6 8.0 0.00 0.00 0.00 57 1011.1
20260503234616 20 232 1.6 6.4 0.00 0.00 0.00 57 1011.1
20260503234516 20 273 1.6 4.8 0.00 0.00 0.00 58 1011.1
20260503234433 20 271 1.6 4.8 0.00 0.00 0.00 58 1011.1
20260503234416 20 307 1.6 4.8 0.00 0.00 0.00 58 1011.1
20260503234315 20 239 1.6 3.2 0.00 0.00 0.00 58 1011.1
20260503234211 20 286 1.6 3.2 0.00 0.00 0.00 58 1011.1
20260503234110 20 276 1.6 3.2 0.00 0.00 0.00 58 1011.1
20260503234010 20 245 1.6 12.9 0.00 0.00 0.00 57 1011.0
20260503233931 20 245 1.6 14.5 0.00 0.00 0.00 58 1011.1
20260503233910 20 218 1.6 14.5 0.00 0.00 0.00 58 1011.1
20260503233810 20 212 3.2 14.5 0.00 0.00 0.00 57 1011.2
20260503233710 20 294 3.2 16.1 0.00 0.00 0.00 58 1011.1
20260503233608 20 124 3.2 16.1 0.00 0.00 0.00 58 1011.1
20260503233508 20 274 3.2 16.1 0.00 0.00 0.00 59 1011.1
20260503233406 20 274 3.2 16.1 0.00 0.00 0.00 59 1011.2
20260503233303 20 274 3.2 16.1 0.00 0.00 0.00 58 1011.2
20260503233201 20 236 3.2 16.1 0.00 0.00 0.00 57 1011.2
20260503233102 20 248 3.2 16.1 0.00 0.00 0.00 57 1011.1
20260503233000 20 231 3.2 16.1 0.00 0.00 0.00 58 1011.2
20260503232929 20 185 3.2 16.1 0.00 0.00 0.00 57 1011.1
20260503232901 20 263 3.2 16.1 0.00 0.00 0.00 57 1011.1
20260503232758 20 240 1.6 14.5 0.00 0.00 0.00 57 1011.1
20260503232652 20 270 3.2 12.9 0.00 0.00 0.00 57 1011.1
20260503232551 20 219 3.2 12.9 0.00 0.00 0.00 58 1011.2
20260503232452 20 248 3.2 12.9 0.00 0.00 0.00 58 1011.1
20260503232429 20 250 3.2 12.9 0.00 0.00 0.00 58 1011.1
20260503232352 20 256 3.2 12.9 0.00 0.00 0.00 58 1011.1
20260503232249 20 242 3.2 12.9 0.00 0.00 0.00 58 1011.1
20260503232146 20 249 3.2 12.9 0.00 0.00 0.00 58 1011.0
20260503232044 20 248 3.2 12.9 0.00 0.00 0.00 58 1011.0
20260503231944 20 248 3.2 12.9 0.00 0.00 0.00 58 1011.1
20260503231923 20 249 3.2 12.9 0.00 0.00 0.00 57 1011.1
20260503231844 20 212 3.2 12.9 0.00 0.00 0.00 57 1011.0
20260503231743 20 212 3.2 12.9 0.00 0.00 0.00 57 1011.0
20260503231640 20 226 3.2 11.3 0.00 0.00 0.00 59 1011.0
20260503231539 20 236 3.2 22.5 0.00 0.00 0.00 59 1011.0
20260503231440 20 233 3.2 22.5 0.00 0.00 0.00 59 1011.0
20260503231417 20 256 3.2 22.5 0.00 0.00 0.00 59 1011.0
20260503231340 19 257 4.8 22.5 0.00 0.00 0.00 59 1010.9
20260503231237 19 239 4.8 22.5 0.00 0.00 0.00 58 1010.9
20260503231136 19 210 6.4 22.5 0.00 0.00 0.00 59 1010.9
20260503231035 19 217 6.4 22.5 0.00 0.00 0.00 58 1010.9
20260503230936 19 274 6.4 22.5 0.00 0.00 0.00 58 1010.9
20260503230910 19 259 6.4 22.5 0.00 0.00 0.00 58 1010.9
20260503230834 19 252 6.4 22.5 0.00 0.00 0.00 58 1010.9
20260503230731 19 294 6.4 22.5 0.00 0.00 0.00 58 1010.9
20260503230626 19 285 6.4 22.5 0.00 0.00 0.00 58 1010.9
20260503230526 19 238 6.4 16.1 0.00 0.00 0.00 58 1010.9
20260503230426 19 231 6.4 16.1 0.00 0.00 0.00 58 1010.8
20260503230404 19 233 6.4 16.1 0.00 0.00 0.00 58 1010.8
20260503230353 19 239 6.4 17.7 0.00 0.00 0.00 58 1010.8
20260503230326 19 240 6.4 16.1 0.00 0.00 0.00 57 1010.9
20260503230237 20 212 6.4 16.1 0.00 0.00 0.00 57 1010.9
20260503230124 20 218 6.4 14.5 0.00 0.00 0.00 58 1010.9
20260503230020 19 226 6.4 14.5 0.00 0.00 0.00 58 1010.8
20260503230011 19 273 6.4 17.7 0.00 0.00 0.00 58 1010.8
20260503225820 19 245 6.4 17.7 0.00 0.00 0.00 58 1010.9
20260503225719 19 246 6.4 17.7 0.00 0.00 0.00 57 1010.9
20260503225618 20 236 6.4 17.7 0.00 0.00 0.00 57 1010.9
20260503225518 20 228 6.4 17.7 0.00 0.00 0.00 57 1010.9
20260503225418 20 264 4.8 17.7 0.00 0.00 0.00 57 1010.9
20260503225354 20 263 4.8 17.7 0.00 0.00 0.00 57 1010.9
20260503225316 20 225 4.8 17.7 0.00 0.00 0.00 57 1010.8
20260503225213 20 231 4.8 17.7 0.00 0.00 0.00 56 1010.9
20260503225119 20 277 4.8 17.7 0.00 0.00 0.00 57 1010.9
20260503225108 20 267 4.8 17.7 0.00 0.00 0.00 56 1010.9
20260503225008 20 221 4.8 17.7 0.00 0.00 0.00 56 1010.9
20260503224959 20 200 4.8 17.7 0.00 0.00 0.00 57 1010.8
20260503224808 20 240 4.8 17.7 0.00 0.00 0.00 56 1010.9
20260503224707 20 263 4.8 17.7 0.00 0.00 0.00 57 1010.8
20260503224605 20 260 3.2 17.7 0.00 0.00 0.00 57 1010.9
20260503224506 20 215 4.8 17.7 0.00 0.00 0.00 57 1010.8
20260503224404 20 312 4.8 17.7 0.00 0.00 0.00 57 1010.8
20260503224344 20 231 6.4 17.7 0.00 0.00 0.00 57 1010.8
20260503224304 20 229 6.4 17.7 0.00 0.00 0.00 57 1010.8
20260503224201 20 290 6.4 24.1 0.00 0.00 0.00 57 1010.8
20260503224055 20 277 6.4 24.1 0.00 0.00 0.00 57 1010.9
20260503223956 20 238 8.0 24.1 0.00 0.00 0.00 57 1011.0
20260503223856 20 257 8.0 24.1 0.00 0.00 0.00 58 1010.9
20260503223836 20 266 9.7 24.1 0.00 0.00 0.00 58 1011.0
20260503223756 20 284 9.7 24.1 0.00 0.00 0.00 57 1011.0
20260503223655 20 262 9.7 24.1 0.00 0.00 0.00 58 1010.9
20260503223552 20 217 9.7 24.1 0.00 0.00 0.00 57 1010.9
20260503223452 20 200 9.7 24.1 0.00 0.00 0.00 56 1011.0
20260503223352 20 232 9.7 24.1 0.00 0.00 0.00 56 1011.0
20260503223331 20 250 8.0 24.1 0.00 0.00 0.00 56 1011.0
20260503223252 20 225 8.0 24.1 0.00 0.00 0.00 57 1011.0
20260503223149 20 214 8.0 24.1 0.00 0.00 0.00 57 1011.0
20260503223044 20 170 8.0 24.1 0.00 0.00 0.00 56 1011.0
20260503222943 20 131 8.0 22.5 0.00 0.00 0.00 56 1010.9
20260503222844 20 203 8.0 17.7 0.00 0.00 0.00 56 1010.9
20260503222823 20 207 6.4 17.7 0.00 0.00 0.00 56 1010.9
20260503222744 20 251 6.4 17.7 0.00 0.00 0.00 57 1010.9